Location: Unspecified
(0.0000°N, 0.0000°E)
Time: 18:59:01
(UTC+00:00)

Vanguard 2 Rocket - Pass Details

Date: 22 January 2020
Orbit: 554 x 3327 km, 32.9° (Epoch: 20 February)

Event Time Altitude Azimuth Distance (km) Brightness Sun altitude
Rises 10:34:31 0° 328° (NNW) 4,825 10.3 59.1°
Reaches altitude 10° 10:37:55 10° 340° (NNW) 4,215 10.1 59.8°
Maximum altitude 10:48:19 30° 37° (NE) 3,801 10.4 61.6°
Drops below altitude 10° 11:03:10 10° 91° (E) 6,096 11.5 64.1°
Sets 11:09:22 0° 100° (E) 7,282 11.8 65.1°
